Regional Weather Roundup
Issued by NWS Jackson, KY

Home | Current Version | Previous Version | Text Only | Print | Product List | Glossary On
Versions: 1 2 3 4 5 6 7 8 9 10 11 12 13 14 15 16 17 18 19 20 21 22 23 24 25 26 27 28 29 30 31 32 33 34 35 36 37 38 39 40 41 42 43 44 45 46 47 48 49 50
000
ASUS43 KJKL 061110
RWRJKL

EAST KENTUCKY HOURLY WEATHER ROUNDUP
NATIONAL WEATHER SERVICE JACKSON KY
600 AM EST FRI MAR 06 2015

NOTE: "FAIR" INDICATES FEW OR NO CLOUDS BELOW 12,000 FEET WITH
NO SIGNIFICANT WEATHER AND/OR OBSTRUCTIONS TO VISIBILITY.

* THESE REPORTS ARE NOT UNDER NWS QUALITY CONTROL AND MAY NOT
  REPORT WEATHER SUCH AS PRECIPITATION AND FOG.

KYZ079-080-083-085-087-088-110-112-115-119-120-061200
...EASTERN KENTUCKY...

CITY           SKY/WX    TMP DP  RH WIND       PRES   REMARKS
JACKSON        PTCLDY     9   4  80 CALM      30.49R
LONDON         PTCLDY     4  -4  69 CALM      30.50R
SOMERSET*      FOG        3   0  85 CALM      30.54S VSB 1/4
MONTICELLO*    HAZE      -9 -14  78 CALM      30.54S VSB<1/4
MIDDLESBORO*   PTCLDY    12  10  93 CALM      30.51R
HAZARD APT*    MOSUNNY    5   1  85 CALM      30.50R
BLACK MTN*       N/A      0  -2  92 VRB2        N/A
PIKEVILLE APT* CLEAR      9   7  92 CALM      30.48R
BIG SANDY*     MOSUNNY    8   6  92 CALM      30.50R
MOREHEAD APT*  MOSUNNY    7   3  85 CALM      30.54R
$$

KYZ035-036-041-042-044-050-067-078-099-061200
...CENTRAL KENTUCKY...

CITY           SKY/WX    TMP DP  RH WIND       PRES   REMARKS
MT STERLING*   LGT SNOW N/A N/A N/A SE3       30.53R
FLEMING/MASON* FOG      N/A N/A N/A E5        30.54S VSB 0
DANVILLE*      MOCLDY    -4  -8  84 CALM      30.53R
RICHMOND*      CLOUDY   N/A N/A N/A CALM      30.51R VSB 1/4
LEXINGTON      MOCLDY    -1  -4  87 CALM      30.52R FOG
FRANKFORT      MOCLDY    -7 -12  79 CALM      30.54R
$$

KYZ091>093-OHZ055-061-077-WVZ005-015-034-035-042-061200
...SOUTHERN OHIO/WEST VIRGINIA...

CITY           SKY/WX    TMP DP  RH WIND       PRES   REMARKS
COVINGTON      PTCLDY     1  -2  87 CALM      30.54R
COLUMBUS       PTCLDY     5   1  83 SE3       30.53F
DAYTON         MOCLDY     7   2  80 W3        30.52R
WILMINGTON     MOCLDY     0  -5  79 CALM      30.51S
HUNTINGTON     FOG        3   0  87 CALM      30.53S VSB 1/2
CHARLESTON     PTCLDY     6   2  83 CALM      30.53R
PINEVILLE*     CLOUDY    11  10  95 MISG      30.50R
BECKLEY        PTCLDY     5   0  79 CALM      30.37R
BLUEFIELD      CLOUDY     9   3  77 CALM      30.34R
$$

VAZ002-007-008-TNZ017-027-036-066-071-061200
...SOUTHWEST VIRGINIA/EAST TENNESSEE...

CITY           SKY/WX    TMP DP  RH WIND       PRES   REMARKS
WISE*          CLOUDY    10   9  92 CALM      30.37R
JONESVILLE*    MOSUNNY    9   7  92 CALM      30.51R
ABINGDON*      CLOUDY    15  10  82 CALM      30.41R
BRISTOL        MOCLDY    15  10  80 N3        30.46R
KNOXVILLE      FLURRIES  20  14  77 N9        30.47R WCI   9
OAK RIDGE      PTCLDY    17  10  74 NE5       30.50R WCI  10
CROSSVILLE     PTCLDY    12   8  84 NE5       30.41S WCI   4
NASHVILLE      PTCLDY    11   6  81 NW5       30.56R WCI   3
$$

...KEY TO REMARKS...
VSB - VISIBILITY IN MILES
WCI - WIND CHILL INDEX
HX  - HEAT INDEX

$$



USA.gov is the U.S. government's official web portal to all federal, state and local government web resources and services.